This demonstration page uses our WeatherBlox Daily Observations layout. Learn more.

Left ArrowRight Arrow

Hourly Observations for September 14, 2020

Temp ( °F °C ) Dew Point ( °F °C ) Humidity (%) Winds ( mph kmh ) Pressure ( in mb ) Visibility ( mi km ) Precip ( " mm )
12:54 am 00:54 Clear 62 16.7 55 12.8 78 78 Calm 30.22 1023 10 16.0934 0 0
1:54 am 01:54 Clear 57 13.9 53 11.7 87 87 Calm 30.24 1024 10 16.0934 0 0
2:54 am 02:54 Clear 54 12.2 51 10.6 90 90 Calm 30.24 1024 10 16.0934 0 0
3:54 am 03:54 Clear 53 11.7 50 10 89 89 Calm 30.24 1024 10 16.0934 0 0
4:54 am 04:54 Clear 52 11.1 49 9.4 89 89 Calm 30.25 1024 10 16.0934 0 0
5:54 am 05:54 Clear 51 10.6 47 8.3 86 86 Calm 30.26 1025 10 16.0934 0 0
6:54 am 06:54 Clear 50 10 47 8.3 89 89 Calm 30.28 1026 10 16.0934 0 0
7:54 am 07:54 Sunny 51 10.6 47 8.3 86 86 Calm 30.31 1026 9 14.48406 0 0
8:54 am 08:54 Sunny 58 14.4 53 11.7 84 84 Calm 30.32 1027 8 12.87472 0 0
9:54 am 09:54 Sunny 62 16.7 57 13.9 84 84 Calm 30.32 1027 8 12.87472 0 0
10:54 am 10:54 Sunny 69 20.6 59 15 70 70 S 7 11 30.33 1027 9 14.48406 0 0
11:54 am 11:54 Sunny 74 23.3 59 15 60 60 VRB 7 11 30.31 1027 9 14.48406 0 0
12:54 pm 12:54 Sunny 77 25 58 14.4 52 52 S 8 13 30.3 1026 9 14.48406 0 0
1:54 pm 13:54 Sunny 78 25.6 57 13.9 48 48 S 9 15 30.28 1025 9 14.48406 0 0
2:54 pm 14:54 Sunny 80 26.7 55 12.8 42 42 SSE 10 17 30.26 1025 9 14.48406 0 0
3:54 pm 15:54 Sunny 80 26.7 56 13.3 44 44 S 7 11 30.24 1024 9 14.48406 0 0
4:54 pm 16:54 Sunny 80 26.7 57 13.9 45 45 SSE 8 13 30.23 1024 9 14.48406 0 0
5:54 pm 17:54 Sunny 78 25.6 57 13.9 48 48 SE 7 11 30.22 1024 9 14.48406 0 0
6:54 pm 18:54 Sunny 74 23.3 57 13.9 56 56 SSE 10 17 30.22 1023 9 14.48406 0 0
7:54 pm 19:54 Clear 71 21.7 57 13.9 61 61 SSE 8 13 30.22 1023 10 16.0934 0 0
8:54 pm 20:54 Clear 64 17.8 56 13.3 75 75 SSE 7 11 30.23 1024 10 16.0934 0 0
9:54 pm 21:54 Clear 64 17.8 56 13.3 75 75 SSE 6 9 30.24 1024 10 16.0934 0 0
10:54 pm 22:54 Clear 62 16.7 56 13.3 80 80 S 6 9 30.24 1024 10 16.0934 0 0
11:54 pm 23:54 Clear 61 16.1 57 13.9 87 87 S 8 13 30.24 1024 10 16.0934 0 0

Powered by AerisWeather